Weather History for KAZO - February, 2013

Change the Weather History Date:

Saturday, February 2, 2013

  Actual Average Record
Temperature  
Mean Temperature 14 °F 25 °F  
Max Temperature 23 °F 32 °F 54 °F (1968)
Min Temperature 5 °F 18 °F -12 °F (1951)
Degree Days  
Heating Degree Days 51 40  
Month to date heating degree days 104 80  
Since 1 July heating degree days 3555 3788  
Cooling Degree Days 0 0  
Month to date cooling degree days 0 0  
Year to date cooling degree days 0 0  
Moisture  
Dew Point 10 °F    
Average Humidity 77    
Maximum Humidity 91    
Minimum Humidity 62    
Precipitation  
Precipitation T in 0.04 in 0.80 in (1967)
Month to date precipitation T 0.08  
Year to date precipitation 3.40 1.87  
Sea Level Pressure  
Sea Level Pressure 30.07 in    
Wind  
Wind Speed 9 mph (SW)    
Max Wind Speed 16 mph    
Max Gust Speed 20 mph    
Visibility 4 miles    
Events Fog , Snow    
T = Trace of Precipitation, MM = Missing Value Source: NWS Daily Summary

Daily Weather History Graph

Daily Weather History Graph

Search for Another Location

Airport or City:

Trip Planner

Search our weather history database for the weather conditions in past years. The results will help you decide how hot, cold, wet, or windy it might be!

Date:

Astronomy

Feb. 02, 2013 Rise Set
Actual Time 7:54 AM EST 5:58 PM EST
Civil Twilight 7:24 AM EST 6:27 PM EST
Nautical Twilight 6:51 AM EST 7:01 PM EST
Astronomical Twilight 6:18 AM EST 7:34 PM EST
Moon 12:11 AM EST (2/2) 10:55 AM EST (2/2)
Length of Visible Light 11h 03m
Length of Day
10h 04m
Waning Gibbous, 60% of the Moon is Illuminated
Feb 2
Waning Gibbous
Feb 3
Last Quarter
Feb 10
New
Feb 17
First Quarter
Feb 25
Full

Hourly Weather History & Observations

Time (EST) Temp. Windchill Dew Point Humidity Pressure Visibility Wind Dir Wind Speed Gust Speed Precip Events Conditions
12:09 AM 10.4 °F -2.4 °F 3.2 °F 73% 30.18 in 10.0 mi SSW 9.2 mph - N/A   Overcast
12:53 AM 10.9 °F -3.4 °F 5.0 °F 77% 30.22 in 5.0 mi SSW 11.5 mph - N/A   Haze
1:12 AM 10.4 °F -4.8 °F 5.0 °F 79% 30.16 in 5.0 mi SSW 12.7 mph - 0.00 in Snow Light Snow
1:53 AM 12.0 °F -3.4 °F 6.1 °F 77% 30.19 in 3.0 mi SSW 13.8 mph - 0.00 in Snow Light Snow
2:16 AM 12.2 °F -2.5 °F 6.8 °F 79% 30.14 in 2.0 mi SSW 12.7 mph - 0.00 in Snow Light Snow
2:19 AM 12.2 °F -2.5 °F 6.8 °F 79% 30.14 in 1.8 mi SSW 12.7 mph - 0.00 in Snow Light Snow
2:35 AM 12.2 °F -2.5 °F 8.6 °F 85% 30.13 in 2.0 mi SSW 12.7 mph - 0.00 in Snow Light Snow
2:47 AM 12.2 °F -1.8 °F 8.6 °F 85% 30.13 in 1.8 mi SSW 11.5 mph - 0.00 in Snow Light Snow
2:53 AM 12.9 °F -0.9 °F 9.0 °F 84% 30.19 in 1.5 mi SSW 11.5 mph - 0.00 in Snow Light Snow
3:12 AM 14.0 °F -0.2 °F 10.4 °F 86% 30.12 in 2.0 mi SSW 12.7 mph - 0.00 in Snow Light Snow
3:50 AM 14.0 °F -0.8 °F 10.4 °F 86% 30.10 in 1.8 mi SSW 13.8 mph - 0.00 in Snow Light Snow
3:53 AM 14.0 °F 0.5 °F 10.0 °F 84% 30.15 in 2.0 mi SSW 11.5 mph - 0.00 in Snow Light Snow
4:15 AM 15.8 °F 2.1 °F 10.4 °F 79% 30.08 in 1.5 mi SSW 12.7 mph - 0.00 in Snow Light Snow
4:29 AM 15.8 °F 1.4 °F 10.4 °F 79% 30.08 in 1.2 mi SSW 13.8 mph - 0.00 in Snow Light Snow
4:53 AM 15.1 °F 1.1 °F 12.0 °F 88% 30.12 in 1.0 mi South 12.7 mph - 0.00 in Snow Light Snow
5:00 AM 15.8 °F 2.1 °F 12.2 °F 86% 30.06 in 0.8 mi South 12.7 mph - 0.00 in Snow Light Snow
5:28 AM 15.8 °F 2.7 °F 12.2 °F 86% 30.05 in 1.0 mi South 11.5 mph - 0.00 in Snow Light Snow
5:53 AM 16.0 °F 2.9 °F 12.0 °F 84% 30.09 in 1.0 mi South 11.5 mph - 0.00 in Snow Light Snow
6:53 AM 17.1 °F 4.3 °F 12.9 °F 84% 30.07 in 1.2 mi South 11.5 mph - 0.00 in Snow Light Snow
7:31 AM 17.6 °F 4.3 °F 14.0 °F 86% 30.01 in 2.0 mi South 12.7 mph - 0.00 in Snow Light Snow
7:53 AM 17.1 °F 5.8 °F 14.0 °F 88% 30.05 in 2.0 mi South 9.2 mph - 0.00 in Snow Light Snow
8:53 AM 19.0 °F 6.1 °F 15.1 °F 85% 30.04 in 1.5 mi SSW 12.7 mph - 0.00 in Snow Light Snow
9:30 AM 19.4 °F 7.2 °F 15.8 °F 86% 29.98 in 0.5 mi SW 11.5 mph - 0.00 in Fog , Snow Snow
9:53 AM 19.9 °F 8.6 °F 16.0 °F 85% 30.03 in 0.5 mi SW 10.4 mph - 0.00 in Fog , Snow Snow
10:53 AM 21.0 °F 10.6 °F 17.1 °F 85% 30.01 in 1.0 mi SW 9.2 mph 18.4 mph 0.00 in Snow Light Snow
11:49 AM 21.2 °F 10.9 °F 17.6 °F 86% 29.96 in 3.0 mi WNW 9.2 mph - 0.00 in Snow Light Snow
11:53 AM 21.9 °F 11.0 °F 17.1 °F 82% 30.01 in 2.5 mi WNW 10.4 mph - 0.00 in Snow Light Snow
12:09 PM 21.2 °F 9.5 °F 17.6 °F 86% 29.96 in 0.8 mi NW 11.5 mph 18.4 mph 0.00 in Snow Light Snow
12:24 PM 19.4 °F 6.6 °F 15.8 °F 86% 29.96 in 1.0 mi North 12.7 mph - 0.00 in Snow Light Snow
12:53 PM 19.9 °F 6.7 °F 12.9 °F 74% 30.01 in 7.0 mi North 13.8 mph - 0.00 in   Overcast
1:53 PM 19.9 °F 9.3 °F 10.9 °F 68% 30.00 in 5.0 mi North 9.2 mph - 0.00 in Snow Light Snow
2:53 PM 19.0 °F 8.2 °F 10.0 °F 68% 30.01 in 10.0 mi North 9.2 mph - N/A   Overcast
3:53 PM 19.0 °F 7.5 °F 8.1 °F 62% 30.02 in 10.0 mi NNW 10.4 mph - N/A   Overcast
4:53 PM 18.0 °F 9.8 °F 10.0 °F 71% 30.04 in 10.0 mi NNW 5.8 mph - N/A   Overcast
5:53 PM 17.1 °F 6.6 °F 9.0 °F 71% 30.05 in 10.0 mi NNW 8.1 mph - N/A   Overcast
6:53 PM 16.0 °F 6.3 °F 9.0 °F 74% 30.06 in 10.0 mi North 6.9 mph - N/A   Overcast
7:53 PM 12.0 °F 2.7 °F 6.1 °F 77% 30.07 in 10.0 mi North 5.8 mph - N/A   Clear
8:53 PM 10.0 °F 3.6 °F 6.1 °F 84% 30.08 in 10.0 mi North 3.5 mph - N/A   Clear
9:53 PM 7.0 °F - 5.0 °F 92% 30.08 in 9.0 mi Calm Calm - N/A   Clear
10:53 PM 8.1 °F - 6.1 °F 92% 30.07 in 8.0 mi Calm Calm - N/A   Mostly Cloudy
11:53 PM 7.0 °F - 3.9 °F 87% 30.05 in 8.0 mi Calm Calm - N/A   Overcast